TimeMDT,TemperatureF,Dew PointF,Humidity,Sea Level PressureIn,VisibilityMPH,Wind Direction,Wind SpeedMPH,Gust SpeedMPH,PrecipitationIn,Events,Conditions,WindDirDegrees,DateUTC
12:53 AM,37.0,30.9,79,30.08,10.0,WSW,4.6,-,0.00,,Overcast,240,2013-10-21 06:53:00
1:53 AM,39.0,32.0,76,30.06,10.0,South,4.6,-,N/A,,Overcast,180,2013-10-21 07:53:00
2:53 AM,41.0,30.9,67,30.08,10.0,North,3.5,-,N/A,,Overcast,10,2013-10-21 08:53:00
3:53 AM,41.0,32.0,70,30.04,10.0,Calm,Calm,-,N/A,,Overcast,0,2013-10-21 09:53:00
4:53 AM,41.0,33.1,73,30.06,10.0,Variable,3.5,-,0.00,,Overcast,0,2013-10-21 10:53:00
5:53 AM,41.0,32.0,70,30.07,10.0,North,5.8,-,N/A,,Overcast,350,2013-10-21 11:53:00
6:53 AM,41.0,33.1,73,30.09,10.0,Calm,Calm,-,N/A,,Overcast,0,2013-10-21 12:53:00
7:53 AM,39.0,32.0,76,30.09,10.0,SSW,4.6,-,N/A,,Overcast,200,2013-10-21 13:53:00
8:53 AM,46.0,34.0,63,30.07,10.0,Calm,Calm,-,N/A,,Mostly Cloudy,0,2013-10-21 14:53:00
9:53 AM,50.0,34.0,54,30.06,10.0,Variable,3.5,-,N/A,,Clear,0,2013-10-21 15:53:00
10:53 AM,54.0,35.1,49,30.04,10.0,North,11.5,25.3,N/A,,Mostly Cloudy,360,2013-10-21 16:53:00
11:53 AM,52.0,33.1,49,30.05,10.0,North,16.1,26.5,N/A,,Mostly Cloudy,350,2013-10-21 17:53:00
12:53 PM,53.1,34.0,48,30.04,10.0,North,15.0,24.2,N/A,,Overcast,360,2013-10-21 18:53:00
1:53 PM,53.1,33.1,47,30.03,10.0,North,13.8,25.3,N/A,,Overcast,350,2013-10-21 19:53:00
2:53 PM,53.1,33.1,47,30.01,10.0,North,17.3,25.3,N/A,,Overcast,350,2013-10-21 20:53:00
3:53 PM,53.1,33.1,47,30.04,10.0,NNW,16.1,28.8,N/A,,Overcast,330,2013-10-21 21:53:00
4:53 PM,55.0,30.0,38,30.01,10.0,NW,20.7,35.7,N/A,,Overcast,320,2013-10-21 22:53:00
5:53 PM,53.1,30.0,41,30.01,10.0,NW,28.8,48.3,N/A,,Scattered Clouds,320,2013-10-21 23:53:00
6:53 PM,53.1,30.9,43,30.04,10.0,NW,27.6,39.1,N/A,,Mostly Cloudy,320,2013-10-22 00:53:00
7:53 PM,52.0,30.9,45,30.06,10.0,NNW,18.4,28.8,N/A,,Mostly Cloudy,330,2013-10-22 01:53:00
8:53 PM,51.1,30.9,46,30.06,10.0,NNW,15.0,27.6,N/A,,Scattered Clouds,330,2013-10-22 02:53:00
9:53 PM,51.1,32.0,48,30.06,10.0,NNW,20.7,29.9,N/A,,Partly Cloudy,330,2013-10-22 03:53:00
10:53 PM,46.9,33.1,59,30.06,10.0,NNW,6.9,-,N/A,,Clear,340,2013-10-22 04:53:00
11:53 PM,52.0,33.1,49,30.05,10.0,NW,17.3,28.8,N/A,,Mostly Cloudy,320,2013-10-22 05:53:00